Time,TemperatureF,DewpointF,PressureIn,WindDirection,WindDirectionDegrees,WindSpeedMPH,WindSpeedGustMPH,Humidity,HourlyPrecipIn,Conditions,Clouds,dailyrainin,SoftwareType,DateUTC
2013-08-06 00:04:00,86.2,68.1,29.84,SSE,167,5.0,5.0,55,0.00,,,0.00,Wunderground v.1.15,2013-08-06 05:04:00,
2013-08-06 00:10:00,86.1,68.0,29.84,South,180,5.0,5.0,55,0.00,,,0.00,Wunderground v.1.15,2013-08-06 05:10:00,
2013-08-06 00:19:00,85.7,68.2,29.84,South,169,5.0,5.0,56,0.00,,,0.00,Wunderground v.1.15,2013-08-06 05:19:00,
2013-08-06 00:24:00,85.4,68.4,29.83,South,180,6.0,6.0,57,0.00,,,0.00,Wunderground v.1.15,2013-08-06 05:24:00,
2013-08-06 00:30:00,85.2,68.8,29.83,SSW,196,6.0,6.0,58,0.00,,,0.00,Wunderground v.1.15,2013-08-06 05:30:00,
2013-08-06 00:35:00,84.9,68.5,29.83,South,173,6.0,6.0,58,0.00,,,0.00,Wunderground v.1.15,2013-08-06 05:35:00,
2013-08-06 00:40:00,84.7,68.3,29.83,South,181,6.0,6.0,58,0.00,,,0.00,Wunderground v.1.15,2013-08-06 05:40:00,
2013-08-06 00:45:00,84.6,68.2,29.83,South,171,6.0,7.0,58,0.00,,,0.00,Wunderground v.1.15,2013-08-06 05:45:00,
2013-08-06 00:50:00,84.4,67.5,29.83,South,173,6.0,6.0,57,0.00,,,0.00,Wunderground v.1.15,2013-08-06 05:50:00,
2013-08-06 00:55:00,84.2,67.3,29.83,South,179,6.0,8.0,57,0.00,,,0.00,Wunderground v.1.15,2013-08-06 05:55:00,
2013-08-06 01:05:00,84.1,67.2,29.83,South,171,5.0,6.0,57,0.00,,,0.00,Wunderground v.1.15,2013-08-06 06:05:00,
2013-08-06 01:10:00,84.1,67.2,29.83,South,178,5.0,8.0,57,0.00,,,0.00,Wunderground v.1.15,2013-08-06 06:10:00,
2013-08-06 01:19:00,84.0,67.1,29.82,South,190,6.0,6.0,57,0.00,,,0.00,Wunderground v.1.15,2013-08-06 06:19:00,
2013-08-06 01:24:00,84.0,66.6,29.82,South,183,6.0,6.0,56,0.00,,,0.00,Wunderground v.1.15,2013-08-06 06:24:00,
2013-08-06 01:30:00,84.0,66.6,29.82,South,175,6.0,6.0,56,0.00,,,0.00,Wunderground v.1.15,2013-08-06 06:30:00,
2013-08-06 01:35:00,84.0,66.6,29.82,South,191,5.0,6.0,56,0.00,,,0.00,Wunderground v.1.15,2013-08-06 06:35:00,
2013-08-06 01:44:00,83.9,66.5,29.82,South,190,4.0,5.0,56,0.00,,,0.00,Wunderground v.1.15,2013-08-06 06:44:00,
2013-08-06 01:54:00,83.7,66.8,29.82,South,170,5.0,5.0,57,0.00,,,0.00,Wunderground v.1.15,2013-08-06 06:54:00,
2013-08-06 02:05:00,83.3,66.5,29.82,South,175,3.0,4.0,57,0.00,,,0.00,Wunderground v.1.15,2013-08-06 07:05:00,
2013-08-06 02:15:00,83.1,66.3,29.82,South,169,3.0,3.0,57,0.00,,,0.00,Wunderground v.1.15,2013-08-06 07:15:00,
2013-08-06 02:20:00,83.0,66.7,29.82,South,171,3.0,3.0,58,0.00,,,0.00,Wunderground v.1.15,2013-08-06 07:20:00,
2013-08-06 02:25:00,82.8,66.5,29.82,South,172,3.0,3.0,58,0.00,,,0.00,Wunderground v.1.15,2013-08-06 07:25:00,
2013-08-06 02:30:00,82.8,66.5,29.82,South,171,2.0,2.0,58,0.00,,,0.00,Wunderground v.1.15,2013-08-06 07:30:00,
2013-08-06 02:35:00,82.7,66.4,29.82,South,171,2.0,2.0,58,0.00,,,0.00,Wunderground v.1.15,2013-08-06 07:35:00,
2013-08-06 02:44:00,82.9,66.6,29.82,South,170,2.0,3.0,58,0.00,,,0.00,Wunderground v.1.15,2013-08-06 07:44:00,
2013-08-06 02:49:00,82.8,66.5,29.82,South,175,2.0,2.0,58,0.00,,,0.00,Wunderground v.1.15,2013-08-06 07:49:00,
2013-08-06 02:54:00,82.6,66.8,29.82,South,169,3.0,5.0,59,0.00,,,0.00,Wunderground v.1.15,2013-08-06 07:54:00,
2013-08-06 02:59:00,82.5,66.7,29.81,South,181,4.0,5.0,59,0.00,,,0.00,Wunderground v.1.15,2013-08-06 07:59:00,
2013-08-06 03:10:00,82.2,66.9,29.82,South,182,4.0,5.0,60,0.00,,,0.00,Wunderground v.1.15,2013-08-06 08:10:00,
2013-08-06 03:20:00,81.6,66.8,29.81,South,188,5.0,10.0,61,0.00,,,0.00,Wunderground v.1.15,2013-08-06 08:20:00,
2013-08-06 03:24:00,81.7,66.9,29.81,South,182,6.0,10.0,61,0.00,,,0.00,Wunderground v.1.15,2013-08-06 08:24:00,
2013-08-06 03:30:00,82.0,66.7,29.81,South,181,7.0,7.0,60,0.00,,,0.00,Wunderground v.1.15,2013-08-06 08:30:00,
2013-08-06 03:35:00,82.0,66.7,29.81,South,186,7.0,8.0,60,0.00,,,0.00,Wunderground v.1.15,2013-08-06 08:35:00,
2013-08-06 03:40:00,81.9,66.6,29.81,South,185,7.0,7.0,60,0.00,,,0.00,Wunderground v.1.15,2013-08-06 08:40:00,
2013-08-06 03:45:00,82.0,66.3,29.80,South,186,7.0,9.0,59,0.00,,,0.00,Wunderground v.1.15,2013-08-06 08:45:00,
2013-08-06 03:54:00,82.3,65.5,29.81,South,182,7.0,7.0,57,0.00,,,0.00,Wunderground v.1.15,2013-08-06 08:54:00,
2013-08-06 04:00:00,82.5,65.7,29.81,South,180,7.0,7.0,57,0.00,,,0.00,Wunderground v.1.15,2013-08-06 09:00:00,
2013-08-06 04:05:00,82.5,65.7,29.81,South,189,7.0,7.0,57,0.00,,,0.00,Wunderground v.1.15,2013-08-06 09:05:00,
2013-08-06 04:10:00,82.5,65.7,29.81,South,188,6.0,6.0,57,0.00,,,0.00,Wunderground v.1.15,2013-08-06 09:10:00,
2013-08-06 04:15:00,82.4,65.6,29.81,SSE,167,6.0,6.0,57,0.00,,,0.00,Wunderground v.1.15,2013-08-06 09:15:00,
2013-08-06 04:20:00,82.2,65.4,29.81,South,188,5.0,5.0,57,0.00,,,0.00,Wunderground v.1.15,2013-08-06 09:20:00,
2013-08-06 04:30:00,81.8,65.6,29.81,South,183,3.0,8.0,58,0.00,,,0.00,Wunderground v.1.15,2013-08-06 09:30:00,
2013-08-06 04:35:00,81.7,65.5,29.81,South,172,4.0,8.0,58,0.00,,,0.00,Wunderground v.1.15,2013-08-06 09:35:00,
2013-08-06 04:40:00,81.5,65.8,29.81,South,171,3.0,3.0,59,0.00,,,0.00,Wunderground v.1.15,2013-08-06 09:40:00,
2013-08-06 04:50:00,80.9,65.7,29.81,SSW,196,5.0,7.0,60,0.00,,,0.00,Wunderground v.1.15,2013-08-06 09:50:00,
2013-08-06 04:55:00,80.7,65.5,29.81,South,186,5.0,7.0,60,0.00,,,0.00,Wunderground v.1.15,2013-08-06 09:55:00,
2013-08-06 05:00:00,80.7,65.5,29.81,South,187,4.0,4.0,60,0.00,,,0.00,Wunderground v.1.15,2013-08-06 10:00:00,
2013-08-06 05:09:00,81.0,65.8,29.81,South,175,4.0,4.0,60,0.00,,,0.00,Wunderground v.1.15,2013-08-06 10:09:00,
2013-08-06 05:14:00,81.2,66.0,29.81,SSW,204,4.0,5.0,60,0.00,,,0.00,Wunderground v.1.15,2013-08-06 10:14:00,
2013-08-06 05:19:00,81.2,66.0,29.82,SSW,213,5.0,5.0,60,0.00,,,0.00,Wunderground v.1.15,2013-08-06 10:19:00,
2013-08-06 05:24:00,81.2,66.5,29.82,SSW,194,5.0,5.0,61,0.00,,,0.00,Wunderground v.1.15,2013-08-06 10:24:00,
2013-08-06 05:29:00,81.1,66.4,29.82,South,183,5.0,9.0,61,0.00,,,0.00,Wunderground v.1.15,2013-08-06 10:29:00,
2013-08-06 05:35:00,81.1,66.4,29.82,SSW,205,5.0,9.0,61,0.00,,,0.00,Wunderground v.1.15,2013-08-06 10:35:00,
2013-08-06 05:40:00,81.0,66.3,29.82,SW,216,5.0,8.0,61,0.00,,,0.00,Wunderground v.1.15,2013-08-06 10:40:00,
2013-08-06 05:45:00,80.8,66.6,29.82,SSW,205,5.0,8.0,62,0.00,,,0.00,Wunderground v.1.15,2013-08-06 10:45:00,
2013-08-06 05:50:00,80.7,66.5,29.82,South,191,5.0,6.0,62,0.00,,,0.00,Wunderground v.1.15,2013-08-06 10:50:00,
2013-08-06 06:00:00,80.5,66.7,29.82,South,185,4.0,4.0,63,0.00,,,0.00,Wunderground v.1.15,2013-08-06 11:00:00,
2013-08-06 06:05:00,80.5,66.7,29.82,South,184,3.0,4.0,63,0.00,,,0.00,Wunderground v.1.15,2013-08-06 11:05:00,
2013-08-06 06:14:00,80.2,66.9,29.82,South,180,4.0,4.0,64,0.00,,,0.00,Wunderground v.1.15,2013-08-06 11:14:00,
2013-08-06 06:19:00,80.1,67.3,29.82,South,182,4.0,8.0,65,0.00,,,0.00,Wunderground v.1.15,2013-08-06 11:19:00,
2013-08-06 06:24:00,79.9,67.1,29.82,South,179,5.0,8.0,65,0.00,,,0.00,Wunderground v.1.15,2013-08-06 11:24:00,
2013-08-06 06:29:00,79.8,67.4,29.82,SSW,201,6.0,6.0,66,0.00,,,0.00,Wunderground v.1.15,2013-08-06 11:29:00,
2013-08-06 06:34:00,79.9,67.5,29.82,South,191,5.0,9.0,66,0.00,,,0.00,Wunderground v.1.15,2013-08-06 11:34:00,
2013-08-06 06:40:00,79.9,67.5,29.82,South,181,5.0,5.0,66,0.00,,,0.00,Wunderground v.1.15,2013-08-06 11:40:00,
2013-08-06 06:49:00,79.7,67.8,29.83,SSW,205,4.0,4.0,67,0.00,,,0.00,Wunderground v.1.15,2013-08-06 11:49:00,
2013-08-06 06:54:00,79.7,67.8,29.82,SSW,202,4.0,7.0,67,0.00,,,0.00,Wunderground v.1.15,2013-08-06 11:54:00,
2013-08-06 07:00:00,79.6,67.7,29.83,SSW,211,4.0,5.0,67,0.00,,,0.00,Wunderground v.1.15,2013-08-06 12:00:00,
2013-08-06 07:10:00,79.6,68.1,29.83,SSW,194,4.0,4.0,68,0.00,,,0.00,Wunderground v.1.15,2013-08-06 12:10:00,
2013-08-06 07:19:00,79.8,68.3,29.83,South,191,4.0,4.0,68,0.00,,,0.00,Wunderground v.1.15,2013-08-06 12:19:00,
2013-08-06 07:24:00,79.8,68.3,29.83,SSW,194,5.0,5.0,68,0.00,,,0.00,Wunderground v.1.15,2013-08-06 12:24:00,
2013-08-06 07:30:00,80.0,68.5,29.83,SSW,204,5.0,5.0,68,0.00,,,0.00,Wunderground v.1.15,2013-08-06 12:30:00,
2013-08-06 07:39:00,80.0,68.5,29.83,SSW,196,5.0,5.0,68,0.00,,,0.00,Wunderground v.1.15,2013-08-06 12:39:00,
2013-08-06 07:49:00,80.3,68.8,29.83,SSW,196,6.0,7.0,68,0.00,,,0.00,Wunderground v.1.15,2013-08-06 12:49:00,
2013-08-06 07:55:00,80.3,68.8,29.83,South,175,6.0,8.0,68,0.00,,,0.00,Wunderground v.1.15,2013-08-06 12:55:00,
2013-08-06 08:05:00,80.9,69.3,29.83,SSW,198,6.0,8.0,68,0.00,,,0.00,Wunderground v.1.15,2013-08-06 13:05:00,
2013-08-06 08:10:00,80.9,69.3,29.83,SW,215,7.0,8.0,68,0.00,,,0.00,Wunderground v.1.15,2013-08-06 13:10:00,
2013-08-06 08:15:00,81.0,69.4,29.83,South,175,7.0,8.0,68,0.00,,,0.00,Wunderground v.1.15,2013-08-06 13:15:00,
2013-08-06 08:20:00,81.3,69.3,29.84,SW,222,7.0,7.0,67,0.00,,,0.00,Wunderground v.1.15,2013-08-06 13:20:00,
2013-08-06 08:30:00,81.5,69.5,29.84,South,183,8.0,10.0,67,0.00,,,0.00,Wunderground v.1.15,2013-08-06 13:30:00,
2013-08-06 08:39:00,81.8,69.8,29.84,South,190,10.0,12.0,67,0.00,,,0.00,Wunderground v.1.15,2013-08-06 13:39:00,
2013-08-06 08:49:00,82.3,70.2,29.84,SSW,203,8.0,14.0,67,0.00,,,0.00,Wunderground v.1.15,2013-08-06 13:49:00,
2013-08-06 08:54:00,82.5,70.4,29.84,South,185,8.0,14.0,67,0.00,,,0.00,Wunderground v.1.15,2013-08-06 13:54:00,
2013-08-06 08:59:00,82.8,70.3,29.84,South,189,9.0,9.0,66,0.00,,,0.00,Wunderground v.1.15,2013-08-06 13:59:00,
2013-08-06 09:04:00,82.9,70.4,29.84,SSW,209,8.0,9.0,66,0.00,,,0.00,Wunderground v.1.15,2013-08-06 14:04:00,
2013-08-06 09:10:00,83.2,70.2,29.85,SSW,195,8.0,8.0,65,0.00,,,0.00,Wunderground v.1.15,2013-08-06 14:10:00,
2013-08-06 09:15:00,83.5,70.5,29.85,SSW,202,7.0,8.0,65,0.00,,,0.00,Wunderground v.1.15,2013-08-06 14:15:00,
2013-08-06 09:20:00,83.6,70.6,29.85,SW,230,8.0,8.0,65,0.00,,,0.00,Wunderground v.1.15,2013-08-06 14:20:00,
2013-08-06 09:29:00,84.2,71.2,29.85,South,184,8.0,9.0,65,0.00,,,0.00,Wunderground v.1.15,2013-08-06 14:29:00,
2013-08-06 09:34:00,84.8,71.3,29.84,SW,215,7.0,9.0,64,0.00,,,0.00,Wunderground v.1.15,2013-08-06 14:34:00,
2013-08-06 09:44:00,85.5,71.5,29.84,SW,224,7.0,7.0,63,0.00,,,0.00,Wunderground v.1.15,2013-08-06 14:44:00,
2013-08-06 09:59:00,86.5,71.9,29.83,SW,217,7.0,7.0,62,0.00,,,0.00,Wunderground v.1.15,2013-08-06 14:59:00,
2013-08-06 10:04:00,86.7,71.6,29.83,SW,220,7.0,7.0,61,0.00,,,0.00,Wunderground v.1.15,2013-08-06 15:04:00,
2013-08-06 10:14:00,87.4,71.8,29.83,SSW,203,7.0,11.0,60,0.00,,,0.00,Wunderground v.1.15,2013-08-06 15:14:00,
2013-08-06 10:19:00,87.5,71.9,29.84,WSW,244,8.0,8.0,60,0.00,,,0.00,Wunderground v.1.15,2013-08-06 15:19:00,
2013-08-06 10:29:00,88.1,72.0,29.84,SSW,194,7.0,7.0,59,0.00,,,0.00,Wunderground v.1.15,2013-08-06 15:29:00,
2013-08-06 10:39:00,88.7,72.0,29.83,SW,226,7.0,8.0,58,0.00,,,0.00,Wunderground v.1.15,2013-08-06 15:39:00,
2013-08-06 10:50:00,89.5,72.3,29.83,SSW,207,8.0,8.0,57,0.00,,,0.00,Wunderground v.1.15,2013-08-06 15:50:00,
2013-08-06 11:00:00,89.8,72.5,29.83,SW,230,8.0,8.0,57,0.00,,,0.00,Wunderground v.1.15,2013-08-06 16:00:00,
2013-08-06 11:05:00,90.4,72.0,29.83,SW,219,6.0,8.0,55,0.00,,,0.00,Wunderground v.1.15,2013-08-06 16:05:00,
2013-08-06 11:14:00,90.9,72.5,29.83,SW,221,7.0,8.0,55,0.00,,,0.00,Wunderground v.1.15,2013-08-06 16:14:00,
2013-08-06 11:19:00,91.2,72.2,29.83,SW,236,7.0,7.0,54,0.00,,,0.00,Wunderground v.1.15,2013-08-06 16:19:00,
2013-08-06 11:30:00,92.0,72.4,29.83,SW,214,7.0,7.0,53,0.00,,,0.00,Wunderground v.1.15,2013-08-06 16:30:00,
2013-08-06 11:40:00,93.1,72.3,29.83,South,186,5.0,6.0,51,0.00,,,0.00,Wunderground v.1.15,2013-08-06 16:40:00,
2013-08-06 11:50:00,93.6,72.2,29.83,WSW,240,6.0,6.0,50,0.00,,,0.00,Wunderground v.1.15,2013-08-06 16:50:00,
2013-08-06 11:55:00,93.5,72.1,29.83,South,176,5.0,9.0,50,0.00,,,0.00,Wunderground v.1.15,2013-08-06 16:55:00,
2013-08-06 12:00:00,93.5,71.5,29.83,WSW,240,7.0,11.0,49,0.00,,,0.00,Wunderground v.1.15,2013-08-06 17:00:00,
2013-08-06 12:05:00,93.5,72.1,29.83,SW,223,6.0,11.0,50,0.00,,,0.00,Wunderground v.1.15,2013-08-06 17:05:00,
2013-08-06 12:15:00,93.5,70.9,29.83,South,172,8.0,10.0,48,0.00,,,0.00,Wunderground v.1.15,2013-08-06 17:15:00,
2013-08-06 12:20:00,93.7,71.7,29.83,SSW,195,8.0,10.0,49,0.00,,,0.00,Wunderground v.1.15,2013-08-06 17:20:00,
2013-08-06 12:30:00,94.7,71.3,29.82,SSW,202,7.0,7.0,47,0.00,,,0.00,Wunderground v.1.15,2013-08-06 17:30:00,
2013-08-06 12:35:00,95.3,71.2,29.82,SSW,202,6.0,7.0,46,0.00,,,0.00,Wunderground v.1.15,2013-08-06 17:35:00,
2013-08-06 12:45:00,95.5,71.4,29.82,SSW,205,7.0,9.0,46,0.00,,,0.00,Wunderground v.1.15,2013-08-06 17:45:00,
2013-08-06 12:55:00,95.4,71.3,29.82,WSW,241,9.0,9.0,46,0.00,,,0.00,Wunderground v.1.15,2013-08-06 17:55:00,
2013-08-06 13:00:00,96.0,71.2,29.82,SSW,201,7.0,7.0,45,0.00,,,0.00,Wunderground v.1.15,2013-08-06 18:00:00,
2013-08-06 13:05:00,96.2,71.4,29.82,SW,221,7.0,8.0,45,0.00,,,0.00,Wunderground v.1.15,2013-08-06 18:05:00,
2013-08-06 13:10:00,96.2,70.7,29.82,SW,222,8.0,8.0,44,0.00,,,0.00,Wunderground v.1.15,2013-08-06 18:10:00,
2013-08-06 13:20:00,96.9,70.0,29.81,SSW,200,8.0,8.0,42,0.00,,,0.00,Wunderground v.1.15,2013-08-06 18:20:00,
2013-08-06 13:25:00,97.1,70.2,29.81,WSW,247,8.0,8.0,42,0.00,,,0.00,Wunderground v.1.15,2013-08-06 18:25:00,
2013-08-06 13:30:00,97.1,69.5,29.81,WSW,240,8.0,8.0,41,0.00,,,0.00,Wunderground v.1.15,2013-08-06 18:30:00,
2013-08-06 13:35:00,97.7,70.0,29.81,WSW,248,7.0,8.0,41,0.00,,,0.00,Wunderground v.1.15,2013-08-06 18:35:00,
2013-08-06 13:40:00,97.8,70.8,29.81,SSW,196,7.0,7.0,42,0.00,,,0.00,Wunderground v.1.15,2013-08-06 18:40:00,
2013-08-06 13:45:00,98.0,71.0,29.81,South,188,7.0,7.0,42,0.00,,,0.00,Wunderground v.1.15,2013-08-06 18:45:00,
2013-08-06 13:50:00,98.2,70.5,29.80,SSW,206,7.0,7.0,41,0.00,,,0.00,Wunderground v.1.15,2013-08-06 18:50:00,
2013-08-06 13:55:00,98.2,69.7,29.80,SSW,199,8.0,11.0,40,0.00,,,0.00,Wunderground v.1.15,2013-08-06 18:55:00,
2013-08-06 14:00:00,98.5,70.7,29.80,SSW,213,7.0,7.0,41,0.00,,,0.00,Wunderground v.1.15,2013-08-06 19:00:00,
2013-08-06 14:05:00,98.5,70.7,29.80,SSW,197,7.0,7.0,41,0.00,,,0.00,Wunderground v.1.15,2013-08-06 19:05:00,
2013-08-06 14:15:00,99.1,69.8,29.80,SW,214,6.0,6.0,39,0.00,,,0.00,Wunderground v.1.15,2013-08-06 19:15:00,
2013-08-06 14:25:00,99.3,68.4,29.80,SW,227,9.0,9.0,37,0.00,,,0.00,Wunderground v.1.15,2013-08-06 19:25:00,
2013-08-06 14:30:00,99.4,69.3,29.79,SW,234,9.0,9.0,38,0.00,,,0.00,Wunderground v.1.15,2013-08-06 19:30:00,
2013-08-06 14:35:00,99.4,68.5,29.79,SSW,201,9.0,13.0,37,0.00,,,0.00,Wunderground v.1.15,2013-08-06 19:35:00,
2013-08-06 14:45:00,100.1,68.3,29.78,SW,232,7.0,10.0,36,0.00,,,0.00,Wunderground v.1.15,2013-08-06 19:45:00,
2013-08-06 14:55:00,100.1,68.3,29.78,SSE,150,10.0,13.0,36,0.00,,,0.00,Wunderground v.1.15,2013-08-06 19:55:00,
2013-08-06 15:00:00,99.9,68.2,29.78,SW,221,8.0,8.0,36,0.00,,,0.00,Wunderground v.1.15,2013-08-06 20:00:00,
2013-08-06 15:05:00,100.4,68.6,29.78,SSW,197,7.0,11.0,36,0.00,,,0.00,Wunderground v.1.15,2013-08-06 20:05:00,
2013-08-06 15:10:00,99.9,66.5,29.78,South,179,9.0,12.0,34,0.00,,,0.00,Wunderground v.1.15,2013-08-06 20:10:00,
2013-08-06 15:15:00,100.0,67.4,29.78,SSW,211,11.0,12.0,35,0.00,,,0.00,Wunderground v.1.15,2013-08-06 20:15:00,
2013-08-06 15:25:00,100.9,66.5,29.77,South,178,9.0,10.0,33,0.00,,,0.00,Wunderground v.1.15,2013-08-06 20:25:00,
2013-08-06 15:30:00,100.9,66.5,29.77,South,171,8.0,11.0,33,0.00,,,0.00,Wunderground v.1.15,2013-08-06 20:30:00,
2013-08-06 15:35:00,100.7,66.3,29.77,SSW,196,7.0,11.0,33,0.00,,,0.00,Wunderground v.1.15,2013-08-06 20:35:00,
2013-08-06 15:40:00,101.1,67.6,29.77,SSE,155,6.0,11.0,34,0.00,,,0.00,Wunderground v.1.15,2013-08-06 20:40:00,
2013-08-06 15:45:00,101.4,66.1,29.77,SW,229,8.0,11.0,32,0.00,,,0.00,Wunderground v.1.15,2013-08-06 20:45:00,
2013-08-06 15:55:00,101.7,66.3,29.76,SSW,207,7.0,7.0,32,0.00,,,0.00,Wunderground v.1.15,2013-08-06 20:55:00,
2013-08-06 16:00:00,101.0,65.7,29.76,South,191,9.0,18.0,32,0.00,,,0.00,Wunderground v.1.15,2013-08-06 21:00:00,
2013-08-06 16:05:00,100.6,65.4,29.76,SW,214,11.0,18.0,32,0.00,,,0.00,Wunderground v.1.15,2013-08-06 21:05:00,
2013-08-06 16:10:00,100.9,64.7,29.77,South,190,11.0,11.0,31,0.00,,,0.00,Wunderground v.1.15,2013-08-06 21:10:00,
2013-08-06 16:15:00,100.9,63.8,29.76,SSW,197,9.0,11.0,30,0.00,,,0.00,Wunderground v.1.15,2013-08-06 21:15:00,
2013-08-06 16:20:00,101.3,65.1,29.76,South,186,9.0,15.0,31,0.00,,,0.00,Wunderground v.1.15,2013-08-06 21:20:00,
2013-08-06 16:30:00,101.5,65.2,29.76,SSW,194,8.0,11.0,31,0.00,,,0.00,Wunderground v.1.15,2013-08-06 21:30:00,
2013-08-06 16:35:00,101.1,64.9,29.76,South,174,10.0,11.0,31,0.00,,,0.00,Wunderground v.1.15,2013-08-06 21:35:00,
2013-08-06 16:40:00,101.1,63.9,29.76,South,170,10.0,10.0,30,0.00,,,0.00,Wunderground v.1.15,2013-08-06 21:40:00,
2013-08-06 16:45:00,101.1,63.9,29.75,South,170,10.0,13.0,30,0.00,,,0.00,Wunderground v.1.15,2013-08-06 21:45:00,
2013-08-06 16:55:00,101.2,64.0,29.75,SSW,195,11.0,11.0,30,0.00,,,0.00,Wunderground v.1.15,2013-08-06 21:55:00,
2013-08-06 17:00:00,101.3,65.1,29.75,South,181,9.0,13.0,31,0.00,,,0.00,Wunderground v.1.15,2013-08-06 22:00:00,
2013-08-06 17:10:00,101.4,64.2,29.75,SSW,203,9.0,9.0,30,0.00,,,0.00,Wunderground v.1.15,2013-08-06 22:10:00,
2013-08-06 17:15:00,101.6,64.4,29.75,SSW,194,9.0,9.0,30,0.00,,,0.00,Wunderground v.1.15,2013-08-06 22:15:00,
2013-08-06 17:25:00,102.0,64.7,29.75,SSW,202,7.0,9.0,30,0.00,,,0.00,Wunderground v.1.15,2013-08-06 22:25:00,
2013-08-06 17:30:00,101.6,64.4,29.74,South,169,8.0,9.0,30,0.00,,,0.00,Wunderground v.1.15,2013-08-06 22:30:00,
2013-08-06 17:35:00,101.2,64.0,29.74,South,175,10.0,10.0,30,0.00,,,0.00,Wunderground v.1.15,2013-08-06 22:35:00,
2013-08-06 17:45:00,101.3,64.1,29.74,SSW,194,10.0,12.0,30,0.00,,,0.00,Wunderground v.1.15,2013-08-06 22:45:00,
2013-08-06 17:55:00,100.7,64.5,29.74,South,189,11.0,13.0,31,0.00,,,0.00,Wunderground v.1.15,2013-08-06 22:55:00,
2013-08-06 18:00:00,100.6,64.5,29.73,SSW,200,11.0,12.0,31,0.00,,,0.00,Wunderground v.1.15,2013-08-06 23:00:00,
2013-08-06 18:05:00,100.6,64.5,29.73,SSW,194,11.0,12.0,31,0.00,,,0.00,Wunderground v.1.15,2013-08-06 23:05:00,
2013-08-06 18:10:00,100.7,64.5,29.73,SSE,159,10.0,10.0,31,0.00,,,0.00,Wunderground v.1.15,2013-08-06 23:10:00,
2013-08-06 18:15:00,100.5,65.3,29.73,South,179,9.0,12.0,32,0.00,,,0.00,Wunderground v.1.15,2013-08-06 23:15:00,
2013-08-06 18:20:00,100.5,64.4,29.73,South,180,9.0,13.0,31,0.00,,,0.00,Wunderground v.1.15,2013-08-06 23:20:00,
2013-08-06 18:25:00,100.4,64.3,29.73,SSE,167,10.0,13.0,31,0.00,,,0.00,Wunderground v.1.15,2013-08-06 23:25:00,
2013-08-06 18:30:00,100.4,64.3,29.73,SSW,204,11.0,11.0,31,0.00,,,0.00,Wunderground v.1.15,2013-08-06 23:30:00,
2013-08-06 18:40:00,100.3,65.1,29.73,ESE,121,9.0,9.0,32,0.00,,,0.00,Wunderground v.1.15,2013-08-06 23:40:00,
2013-08-06 18:45:00,100.0,65.7,29.73,SSW,196,8.0,9.0,33,0.00,,,0.00,Wunderground v.1.15,2013-08-06 23:45:00,
2013-08-06 18:55:00,99.6,66.2,29.72,South,169,8.0,10.0,34,0.00,,,0.00,Wunderground v.1.15,2013-08-06 23:55:00,
2013-08-06 19:00:00,99.3,66.0,29.72,South,188,8.0,8.0,34,0.00,,,0.00,Wunderground v.1.15,2013-08-07 00:00:00,
2013-08-06 19:10:00,98.9,66.5,29.72,South,182,8.0,11.0,35,0.00,,,0.00,Wunderground v.1.15,2013-08-07 00:10:00,
2013-08-06 19:15:00,98.7,67.1,29.72,SSE,152,8.0,11.0,36,0.00,,,0.00,Wunderground v.1.15,2013-08-07 00:15:00,
2013-08-06 19:20:00,98.4,67.6,29.72,South,180,7.0,7.0,37,0.00,,,0.00,Wunderground v.1.15,2013-08-07 00:20:00,
2013-08-06 19:25:00,98.2,67.5,29.72,SSE,158,7.0,7.0,37,0.00,,,0.00,Wunderground v.1.15,2013-08-07 00:25:00,
2013-08-06 19:30:00,97.9,67.2,29.72,SSW,200,7.0,7.0,37,0.00,,,0.00,Wunderground v.1.15,2013-08-07 00:30:00,
2013-08-06 19:35:00,97.7,67.0,29.72,SSE,166,7.0,9.0,37,0.00,,,0.00,Wunderground v.1.15,2013-08-07 00:35:00,
2013-08-06 19:45:00,97.2,67.4,29.73,SSE,155,6.0,6.0,38,0.00,,,0.00,Wunderground v.1.15,2013-08-07 00:45:00,
2013-08-06 19:50:00,96.9,67.8,29.73,South,177,7.0,8.0,39,0.00,,,0.00,Wunderground v.1.15,2013-08-07 00:50:00,
2013-08-06 19:55:00,96.5,68.2,29.72,SSE,167,7.0,8.0,40,0.00,,,0.00,Wunderground v.1.15,2013-08-07 00:55:00,
2013-08-06 20:00:00,96.2,68.0,29.72,South,177,6.0,6.0,40,0.00,,,0.00,Wunderground v.1.15,2013-08-07 01:00:00,
2013-08-06 20:05:00,95.9,68.4,29.73,SSE,159,5.0,6.0,41,0.00,,,0.00,Wunderground v.1.15,2013-08-07 01:05:00,
2013-08-06 20:10:00,95.6,68.1,29.73,SSE,161,5.0,5.0,41,0.00,,,0.00,Wunderground v.1.15,2013-08-07 01:10:00,
2013-08-06 20:15:00,95.3,68.6,29.73,South,169,5.0,5.0,42,0.00,,,0.00,Wunderground v.1.15,2013-08-07 01:15:00,
2013-08-06 20:25:00,94.7,68.7,29.73,South,175,5.0,5.0,43,0.00,,,0.00,Wunderground v.1.15,2013-08-07 01:25:00,
2013-08-06 20:30:00,94.3,69.0,29.73,South,169,5.0,5.0,44,0.00,,,0.00,Wunderground v.1.15,2013-08-07 01:30:00,
2013-08-06 20:40:00,93.9,69.3,29.73,South,170,4.0,5.0,45,0.00,,,0.00,Wunderground v.1.15,2013-08-07 01:40:00,
2013-08-06 20:45:00,93.7,69.2,29.74,SSW,192,4.0,5.0,45,0.00,,,0.00,Wunderground v.1.15,2013-08-07 01:45:00,
2013-08-06 20:50:00,93.4,68.9,29.74,SSW,192,5.0,5.0,45,0.00,,,0.00,Wunderground v.1.15,2013-08-07 01:50:00,
2013-08-06 21:00:00,92.9,69.1,29.74,South,170,5.0,5.0,46,0.00,,,0.00,Wunderground v.1.15,2013-08-07 02:00:00,
2013-08-06 21:05:00,92.6,68.8,29.75,South,171,5.0,5.0,46,0.00,,,0.00,Wunderground v.1.15,2013-08-07 02:05:00,
2013-08-06 21:10:00,92.3,68.5,29.75,SSE,165,5.0,5.0,46,0.00,,,0.00,Wunderground v.1.15,2013-08-07 02:10:00,
2013-08-06 21:20:00,92.0,68.9,29.75,South,179,4.0,4.0,47,0.00,,,0.00,Wunderground v.1.15,2013-08-07 02:20:00,
2013-08-06 21:25:00,91.8,68.7,29.75,SSE,161,4.0,6.0,47,0.00,,,0.00,Wunderground v.1.15,2013-08-07 02:25:00,
2013-08-06 21:30:00,91.6,67.9,29.75,SE,139,4.0,4.0,46,0.00,,,0.00,Wunderground v.1.15,2013-08-07 02:30:00,
2013-08-06 21:35:00,91.2,67.5,29.76,SSE,162,4.0,4.0,46,0.00,,,0.00,Wunderground v.1.15,2013-08-07 02:35:00,
2013-08-06 21:45:00,90.8,67.2,29.76,SE,134,4.0,5.0,46,0.00,,,0.00,Wunderground v.1.15,2013-08-07 02:45:00,
2013-08-06 21:50:00,90.4,67.4,29.77,SSE,155,3.0,3.0,47,0.00,,,0.00,Wunderground v.1.15,2013-08-07 02:50:00,
2013-08-06 21:55:00,90.2,67.2,29.77,SSE,159,4.0,6.0,47,0.00,,,0.00,Wunderground v.1.15,2013-08-07 02:55:00,
2013-08-06 22:00:00,89.9,67.0,29.77,SSE,153,4.0,7.0,47,0.00,,,0.00,Wunderground v.1.15,2013-08-07 03:00:00,
2013-08-06 22:05:00,89.7,67.4,29.77,SSE,159,5.0,7.0,48,0.00,,,0.00,Wunderground v.1.15,2013-08-07 03:05:00,
2013-08-06 22:10:00,89.4,67.1,29.77,SSE,161,5.0,5.0,48,0.00,,,0.00,Wunderground v.1.15,2013-08-07 03:10:00,
2013-08-06 22:15:00,89.2,67.5,29.77,SSE,168,5.0,5.0,49,0.00,,,0.00,Wunderground v.1.15,2013-08-07 03:15:00,
2013-08-06 22:20:00,89.0,67.4,29.77,South,172,5.0,5.0,49,0.00,,,0.00,Wunderground v.1.15,2013-08-07 03:20:00,
2013-08-06 22:30:00,88.7,67.7,29.78,South,176,5.0,5.0,50,0.00,,,0.00,Wunderground v.1.15,2013-08-07 03:30:00,
2013-08-06 22:35:00,88.7,67.7,29.78,SSE,159,5.0,5.0,50,0.00,,,0.00,Wunderground v.1.15,2013-08-07 03:35:00,
2013-08-06 22:40:00,88.7,67.7,29.78,SSE,162,6.0,8.0,50,0.00,,,0.00,Wunderground v.1.15,2013-08-07 03:40:00,
2013-08-06 22:45:00,88.6,68.2,29.78,SE,132,6.0,8.0,51,0.00,,,0.00,Wunderground v.1.15,2013-08-07 03:45:00,
2013-08-06 22:50:00,88.6,67.6,29.79,SSE,156,6.0,6.0,50,0.00,,,0.00,Wunderground v.1.15,2013-08-07 03:50:00,
2013-08-06 22:55:00,88.5,68.1,29.79,South,169,6.0,6.0,51,0.00,,,0.00,Wunderground v.1.15,2013-08-07 03:55:00,
2013-08-06 23:00:00,88.4,68.0,29.79,South,169,6.0,6.0,51,0.00,,,0.00,Wunderground v.1.15,2013-08-07 04:00:00,
2013-08-06 23:05:00,88.3,67.9,29.79,SSE,155,6.0,9.0,51,0.00,,,0.00,Wunderground v.1.15,2013-08-07 04:05:00,
2013-08-06 23:10:00,88.3,67.9,29.79,SSE,149,6.0,7.0,51,0.00,,,0.00,Wunderground v.1.15,2013-08-07 04:10:00,
2013-08-06 23:15:00,88.2,67.8,29.79,SSE,162,6.0,7.0,51,0.00,,,0.00,Wunderground v.1.15,2013-08-07 04:15:00,
2013-08-06 23:20:00,88.1,67.7,29.79,SSE,160,6.0,8.0,51,0.00,,,0.00,Wunderground v.1.15,2013-08-07 04:20:00,
2013-08-06 23:25:00,88.0,67.6,29.79,South,181,6.0,8.0,51,0.00,,,0.00,Wunderground v.1.15,2013-08-07 04:25:00,
2013-08-06 23:30:00,87.8,68.0,29.78,South,179,7.0,7.0,52,0.00,,,0.00,Wunderground v.1.15,2013-08-07 04:30:00,
2013-08-06 23:35:00,87.7,67.9,29.79,South,173,6.0,7.0,52,0.00,,,0.00,Wunderground v.1.15,2013-08-07 04:35:00,
2013-08-06 23:40:00,87.6,67.8,29.78,SSE,164,5.0,5.0,52,0.00,,,0.00,Wunderground v.1.15,2013-08-07 04:40:00,
2013-08-06 23:45:00,87.4,68.2,29.78,SSE,152,5.0,6.0,53,0.00,,,0.00,Wunderground v.1.15,2013-08-07 04:45:00,
2013-08-06 23:50:00,87.3,68.1,29.78,South,175,5.0,5.0,53,0.00,,,0.00,Wunderground v.1.15,2013-08-07 04:50:00,
2013-08-06 23:55:00,87.2,68.5,29.78,SSE,155,5.0,7.0,54,0.00,,,0.00,Wunderground v.1.15,2013-08-07 04:55:00,